This is the latest recevied weather packets stored in our database for station/object N2XP-2. If no packets are shown the sender has not sent any weather packets the latest 10 day(s).
| Time | Temp. | Humidity | Pressure | Rain* | Wind** | Luminosity | Snow |
|---|---|---|---|---|---|---|---|
| 1778091969 | 21.11° C | 71% | 1008.1 hPa | 0.25 mm | 3.58 m/s, 262° | - | - |
| 1778091670 | 21.11° C | 71% | 1008.2 hPa | 0.25 mm | 2.24 m/s, 194° | - | - |
| 1778091370 | 21.67° C | 71% | 1008.1 hPa | 0.25 mm | 2.24 m/s, 248° | - | - |
| 1778091066 | 21.67° C | 71% | 1008.2 hPa | 0.25 mm | 1.34 m/s, 314° | - | - |
| 1778090767 | 21.67° C | 71% | 1008.2 hPa | 0.25 mm | 1.79 m/s, 271° | - | - |
| 1778090468 | 21.67° C | 72% | 1008.2 hPa | 0.25 mm | 1.79 m/s, 203° | - | - |
| 1778090165 | 21.67° C | 73% | 1008.3 hPa | 0.25 mm | 1.79 m/s, 180° | - | - |
| 1778090076 | 21.67° C | 76% | 1008.8 hPa | 0 mm | 1.34 m/s, 205° | - | - |
| 1778090064 | 21.67° C | 77% | 1008.7 hPa | 0 mm | 0.45 m/s, 270° | - | - |
| 1778089864 | 21.67° C | 74% | 1008.5 hPa | 0.25 mm | 1.34 m/s, 305° | - | - |
| 1778089565 | 21.67° C | 75% | 1008.6 hPa | 0 mm | 1.34 m/s, 152° | - | - |
| 1778089263 | 21.67° C | 75% | 1008.7 hPa | 0 mm | 0.89 m/s, 242° | - | - |
| 1778088964 | 21.67° C | 76% | 1008.7 hPa | 0 mm | 1.34 m/s, 188° | - | - |
| 1778088665 | 21.67° C | 76% | 1008.8 hPa | 0 mm | 1.34 m/s, 205° | - | - |
| 1778088361 | 21.67° C | 77% | 1008.7 hPa | 0 mm | 0.45 m/s, 270° | - | - |
| 1778088159 | 21.67° C | 72% | 1009 hPa | 0 mm | 0 m/s | - | - |
| 1778088148 | 21.67° C | 72% | 1009.1 hPa | 0 mm | 0.45 m/s, 221° | - | - |
| 1778088062 | 21.67° C | 77% | 1008.7 hPa | 0 mm | 1.34 m/s, 179° | - | - |
| 1778087763 | 21.67° C | 77% | 1008.9 hPa | 0 mm | 0.89 m/s, 177° | - | - |
| 1778087460 | 21.67° C | 74% | 1008.9 hPa | 0 mm | 0.89 m/s, 156° | - | - |
| 1778087161 | 21.67° C | 73% | 1009 hPa | 0 mm | 0.89 m/s, 176° | - | - |
| 1778086861 | 21.67° C | 72% | 1009 hPa | 0 mm | 0 m/s | - | - |
| 1778086558 | 21.67° C | 72% | 1009.1 hPa | 0 mm | 0.45 m/s, 221° | - | - |
| 1778086259 | 21.67° C | 71% | 1009.4 hPa | 0 mm | 0.89 m/s, 142° | - | - |
| 1778086230 | 21.11° C | 74% | 1010 hPa | 0 mm | 0 m/s | - | - |
* Rain latest hour (hover to see other rain measurements)
** Current wind speed in m/s (hover to see current wind gust speed)